OSCAR 7 (AO-7) 1 07530U 74089B 26253.53954053 -.00000025 00000+0 13363-3 0 9991 2 07530 101.9922 267.6787 0012075 329.9151 150.1950 12.53699558371217 PHASE 3B (AO-10) 1 14129U 83058B 26246.05220749 -.00000009 00000+0 00000+0 0 9998 2 14129 25.9715 206.8146 5985571 137.0259 289.6643 2.05870144297098 UOSAT 2 (UO-11) 1 14781U 84021B 26253.45828132 .00001123 00000+0 11928-3 0 9997 2 14781 97.8161 218.1351 0006029 261.1183 98.9353 14.90981024269838 LUSAT (LO-19) 1 20442U 90005G 26253.57814215 .00000056 00000+0 36791-4 0 9997 2 20442 98.8828 277.7264 0010781 319.8940 40.1447 14.34142954914633 EYESAT A (AO-27) 1 22825U 93061C 26252.74699361 .00000044 00000+0 33612-4 0 9996 2 22825 98.6805 320.0975 0007881 205.1990 154.8810 14.30960173719090 ITAMSAT (IO-26) 1 22826U 93061D 26253.47007485 .00000051 00000+0 36088-4 0 9996 2 22826 98.6752 320.7460 0008770 185.9467 174.1613 14.31389124719515 RADIO ROSTO (RS15) 1 23439U 94085A 26253.43485600 -.00000052 00000+0 -27495-3 0 9993 2 23439 64.8166 165.3456 0159003 348.5283 11.2035 11.27583971305515 JAS-2 (FO-29) 1 24278U 96046B 26253.40779650 -.00000019 00000+0 18203-4 0 9992 2 24278 98.5172 90.5969 0349028 235.1857 121.5987 13.53277796484696 TECHSAT 1B (GO-32) 1 25397U 98043D 26253.54967274 .00000030 00000+0 33348-4 0 9999 2 25397 99.0148 248.4916 0001240 22.6578 337.4655 14.24442144463488 ISS (ZARYA) 1 25544U 98067A 26253.46606356 .00004975 00000+0 98181-4 0 9999 2 25544 51.6301 238.0248 0004990 125.6916 234.4537 15.49068968584974 PCSAT (NO-44) 1 26931U 01043C 26253.50956612 .00000053 00000+0 50719-4 0 9994 2 26931 67.0523 23.5825 0005727 272.0806 87.9641 14.31982408302669 SAUDISAT 1C (SO-50) 1 27607U 02058C 26253.65485523 .00000670 00000+0 96660-4 0 9996 2 27607 64.5511 224.5159 0072222 246.8033 112.5455 14.83203996277133 CUTE-1 (CO-55) 1 27844U 03031E 26253.52754362 .00000192 00000+0 10190-3 0 9999 2 27844 98.6771 261.0269 0008527 301.9536 58.0813 14.24379231203826 CUBESAT XI-IV (CO-57) 1 27848U 03031J 26253.55901736 .00000149 00000+0 84527-4 0 9993 2 27848 98.6802 260.7017 0008712 322.7094 37.3478 14.23658269203522 MOZHAETS 4 (RS22) 1 27939U 03042A 26253.71713963 .00000812 00000+0 13291-3 0 9993 2 27939 98.3480 80.5161 0011430 4.1192 126.4448 14.73594950228144 CUBESAT XI-V 1 28895U 05043F 26253.39764235 .00000882 00000+0 14612-3 0 9995 2 28895 98.3096 50.8755 0012864 297.6163 62.3737 14.72817390114291 CUTE-1.7+APD II (CO-65) 1 32785U 08021C 26253.67736572 .00003252 00000+0 20340-3 0 9990 2 32785 97.8367 236.9608 0010583 96.6291 263.6142 15.10132605998094 SEEDS II (CO-66) 1 32791U 08021J 26253.51667382 .00014570 00000+0 42545-3 0 9998 2 32791 97.7559 255.6889 0003530 50.0689 310.0863 15.35426673 360 YUBILEINY (RS30) 1 32953U 08025A 26253.56621277 .00000033 00000+0 16161-3 0 9994 2 32953 82.5039 302.3411 0020627 123.9945 236.3098 12.43182625830304 KKS-1 (KISEKI) 1 33499U 09002H 26253.66338931 .00000897 00000+0 11632-3 0 9995 2 33499 98.1159 177.4557 0008411 23.0691 337.0898 14.83305139948864 SWISSCUBE 1 35932U 09051B 26252.72845887 .00000622 00000+0 13219-3 0 9991 2 35932 98.3947 162.0591 0006000 319.8652 40.2105 14.62616101901514 BEESAT-1 1 35933U 09051C 26253.26168171 .00000562 00000+0 12231-3 0 9992 2 35933 98.3873 162.0563 0004750 337.4756 22.6236 14.61834099901610 ITUPSAT1 1 35935U 09051E 26252.71075265 .00000486 00000+0 11010-3 0 9993 2 35935 98.3953 160.5973 0007220 346.9771 13.1241 14.60545019901077 XIWANG-1 (HOPE-1) 1 36122U 09072B 26253.66680997 -.00000015 00000+0 75948-4 0 9994 2 36122 100.4104 206.1593 0008054 42.2728 317.9005 13.16442095804253 O/OREOS (USA 219) 1 37224U 10062C 26253.37292014 .00001479 00000+0 14422-3 0 9999 2 37224 71.9677 247.3297 0016630 264.1097 95.8178 14.94022007129364 JUGNU 1 37839U 11058B 26253.43360125 .00000395 00000+0 66822-4 0 9991 2 37839 19.9597 150.5111 0018437 297.8580 220.6288 14.13797046771104 SRMSAT 1 37841U 11058D 26252.71345689 .00000358 00000+0 50331-4 0 9999 2 37841 19.9714 267.8439 0011955 54.6311 103.2680 14.11591337769777 STRAND-1 1 39090U 13009E 26253.48058273 .00000164 00000+0 69395-4 0 9995 2 39090 98.3968 71.6448 0008248 343.9864 16.1061 14.37204672709316 ZACUBE-1 (TSHEPISOSAT) 1 39417U 13066B 26253.64523051 .00004136 00000+0 31699-3 0 9998 2 39417 97.8120 216.4144 0040255 327.3715 32.5022 15.01771416693554 GOMX-1 1 39430U 13066Q 26253.70474936 .00001699 00000+0 25907-3 0 9993 2 39430 97.6442 88.7781 0128272 162.0140 198.5668 14.69682898682479 CUBEBUG-2 (LO-74) 1 39440U 13066AA 26253.58950159 .00002453 00000+0 22677-3 0 9996 2 39440 97.8970 202.9896 0058453 103.6969 257.0767 14.94239279689745 FUNCUBE-1 (AO-73) 1 39444U 13066AE 26253.47355020 .00005821 00000+0 35245-3 0 9991 2 39444 97.8368 226.8084 0033604 273.6737 86.0649 15.10543121692539 UWE-3 1 39446U 13066AG 26253.42312264 .00003696 00000+0 31441-3 0 9993 2 39446 97.8779 210.1358 0049352 37.1331 323.3287 14.97518634690333 UNISAT-6 1 40012U 14033C 26253.37651735 .00002619 00000+0 28177-3 0 9998 2 40012 97.7990 44.6684 0045468 146.1532 214.2601 14.88605090658838 DUCHIFAT-1 1 40021U 14033M 26252.72228921 .00765788 28309-3 13471-2 0 9992 2 40021 98.0221 325.4770 0007048 245.6327 114.4215 16.02032163669077 QB50P1 1 40025U 14033R 26253.53100495 .00005794 00000+0 27723-3 0 9995 2 40025 98.0967 270.7427 0006965 298.3504 61.7026 15.19401700665982 LILACSAT-2 1 40908U 15049K 26253.72154997 .00015847 00000+0 24515-3 0 9996 2 40908 97.4569 293.9437 0004628 307.7375 52.3459 15.54150142609025 FOX-1A (AO-85) 1 40967U 15058D 26253.59234021 .00001246 00000+0 11923-3 0 9990 2 40967 64.7754 13.4736 0137722 24.5778 336.1814 14.91376186126304 CAS-2T & KS-1Q 1 41847U 16066G 26252.79983509 .00000673 00000+0 10419-3 0 9993 2 41847 98.3760 327.5635 0340276 232.6638 124.3103 14.44832902517017 RADFXSAT (FOX-1B) 1 43017U 17073E 26253.57479412 .00007337 00000+0 31139-3 0 9999 2 43017 97.4566 119.0460 0148417 34.0306 327.0335 15.13846776478309 DIWATA-2B 1 43678U 18084H 26253.72172694 .00001536 00000+0 12635-3 0 9999 2 43678 98.1183 93.6960 0011219 241.9837 118.0251 15.00717213429045 ES'HAIL 2 1 43700U 18090A 26253.51734287 .00000125 00000+0 00000+0 0 9993 2 43700 0.0186 139.6568 0002553 65.1771 356.7462 1.00272678 28535 FOX-1CLIFF (AO-95) 1 43770U 18099N 26252.71276228 .00009093 00000+0 33186-3 0 9994 2 43770 97.4308 312.7060 0009470 56.8709 303.3438 15.28322584426127 ITASAT 1 43786U 18099AE 26252.70732570 .00005169 00000+0 24280-3 0 9992 2 43786 97.3952 302.5489 0013674 61.7598 298.5016 15.19969198425744 JY1SAT (JO-97) 1 43803U 18099AX 26252.71469732 .00013709 00000+0 39115-3 0 9992 2 43803 97.4057 315.9566 0004410 342.9441 17.1654 15.36153461426598 UWE-4 1 43880U 18111E 26253.30971104 .00036849 00000+0 62479-3 0 9998 2 43880 97.5815 185.9480 0007960 37.2123 322.9679 15.51396053423954 TIANYAN 01 1 44881U 19093C 26253.52844111 .00000109 00000+0 18262-4 0 9993 2 44881 97.7470 323.6521 0013719 160.0612 200.1143 14.86626349364092 RS-44 & BREEZE-KM R/B 1 44909U 19096E 26253.53336713 .00000035 00000+0 10316-3 0 9991 2 44909 82.5179 282.9972 0216528 305.0073 53.0873 12.79749247313264 SALSAT 1 46495U 20068K 26253.54002311 .00005592 00000+0 19011-3 0 9993 2 46495 97.8883 261.8891 0009629 13.9048 346.2455 15.30868503328415 XW-3 (CAS-9) 1 50466U 21131B 26253.57700297 .00000276 00000+0 98720-4 0 9998 2 50466 98.4977 345.5021 0003830 185.1679 174.9471 14.41421975247417 GREENCUBE (IO-117) 1 53109U 22080E 26253.47302054 -.00000003 00000+0 00000+0 0 9995 2 53109 70.1219 268.5814 0009247 271.2352 88.7248 6.42583725 97542 UMKA 1 (RS40S) 1 57172U 23091G 26253.53880920 .00004186 00000+0 18806-3 0 9994 2 57172 97.4971 311.9184 0012645 174.2219 185.9165 15.21637054176982 CUBESX-HSE 3 (RS42S) 1 57178U 23091N 26253.66243399 .00010766 00000+0 33847-3 0 9990 2 57178 97.5017 320.4105 0011145 142.7816 217.4200 15.33097629177517 MONITOR-3 (RS58S) 1 57180U 23091Q 26253.62498770 .00007719 00000+0 27356-3 0 9996 2 57180 97.5007 317.7518 0011972 151.5845 208.6050 15.29320858177348 MONITOR-4 (RS57S) 1 57182U 23091S 26253.66453358 .00008241 00000+0 29104-3 0 9999 2 57182 97.5001 317.7677 0011991 151.6085 208.5810 15.29411911177353 MONITOR-2 (RS39S) 1 57184U 23091U 26253.67180513 .00003331 00000+0 15965-3 0 9997 2 57184 97.4991 311.4018 0011334 166.8872 193.2659 15.19570442176933 SVYATOBOR 1 (RS60S) 1 57187U 23091X 26253.69224573 .00006325 00000+0 23500-3 0 9997 2 57187 97.5013 318.0211 0010053 143.8627 216.3293 15.27863823177366 VIZARD-METEO (RS38S) 1 57189U 23091Z 26253.61360772 .00014252 00000+0 37680-3 0 9995 2 57189 97.5022 324.9304 0008055 121.0137 239.1900 15.38495061177815 POLYTECH-UNIVERSE 3 (R*) 1 57191U 23091AB 26253.68701253 .00003332 00000+0 15848-3 0 9997 2 57191 97.4966 310.9218 0015064 185.3941 174.7134 15.19788082176939 UTMN 2 (RS27S) 1 57203U 23091AP 26253.69977774 .00010063 00000+0 30888-3 0 9995 2 57203 97.5015 322.1850 0008748 129.5099 230.6918 15.33906055177640 KUZGTU 1 (RS47S) 1 57217U 23091AV 26253.66869182 .00009417 00000+0 31090-3 0 9997 2 57217 97.4988 319.0879 0011326 146.8972 213.2980 15.31567738177451 SONATE-2 1 59112U 24043Q 26253.40736012 .00048410 00000+0 48390-3 0 9995 2 59112 97.5606 49.5142 0005210 241.9653 118.1079 15.65452036141196 MESAT1 1 60209U 24125G 26253.59762800 .00085746 00000+0 58314-3 0 9999 2 60209 97.2125 113.6322 0005604 239.7884 120.2827 15.74642588122950 GRBBETA 1 60237U 24128C 26253.42210795 .00002254 00000+0 16227-3 0 9996 2 60237 61.9885 277.0990 0028241 153.3649 206.8903 15.07151968119113 OOV-CUBE (TUBSAT-30) 1 60240U 24128F 26253.41614977 .00001167 00000+0 10083-3 0 9995 2 60240 61.9936 288.3132 0032671 153.5426 206.7342 15.03083282118927 COLIBRI-S (RS67S) 1 61746U 24199M 26253.69799505 .00020413 00000+0 35079-3 0 9993 2 61746 97.2820 128.4733 0006909 345.3597 14.7454 15.51139450150658 HORS 3 (RS81S) 1 61753U 24199U 26253.70593767 .00040492 00000+0 47876-3 0 9992 2 61753 97.2815 131.5594 0003855 352.7231 7.3970 15.61184287150878 HORS 4 (RS82S) 1 61754U 24199V 26253.65757009 .00075695 00000+0 65598-3 0 9992 2 61754 97.2749 133.4260 0002119 348.6373 11.4841 15.68908775151001 SIT-2086 1 61764U 24199AF 26253.65922637 .00038933 00000+0 49494-3 0 9995 2 61764 97.2770 131.6904 0003641 325.5444 34.5576 15.59284103147722 ALTAIR (RS65S) 1 61779U 24199AW 26253.68230184 .00008929 00000+0 23689-3 0 9993 2 61779 97.2888 122.4969 0012347 7.1848 352.9572 15.38462057150259 ASRTU-1 (AO-123) 1 61781U 24199AY 26253.68899950 .00006326 00000+0 17771-3 0 9992 2 61781 97.2857 121.5949 0013622 9.6806 350.4698 15.36790470147051 SAMSAT-IONOSPHERE (RS7*) 1 61784U 24199BB 26253.67025348 .00053974 00000+0 52686-3 0 9991 2 61784 97.2769 131.9968 0004682 342.0520 18.0575 15.66028551150901 RTU MIREA 1 (RS51S) 1 61785U 24199BC 26253.69275168 .00083317 00000+0 62101-3 0 9998 2 61785 97.2745 133.4519 0003145 342.5499 17.5656 15.72512422147854 LASARSAT 1 62391U 24247Q 26252.13773078 .00044343 00000+0 73022-3 0 9997 2 62391 44.9723 148.6226 0008259 164.8391 195.2750 15.51644049 96336 CROCUBE 1 62394U 24247T 26252.39610547 .00043680 00000+0 64912-3 0 9990 2 62394 44.9697 142.8132 0008943 177.1117 182.9829 15.54481968 96426 TEVEL2-4 1 63213U 25052D 26253.26200846 .00016486 00000+0 45149-3 0 9995 2 63213 97.3776 149.9094 0003797 128.2607 231.8979 15.37392194 83176 TEVEL2-5 1 63214U 25052E 26252.64237562 .00015350 00000+0 42392-3 0 9998 2 63214 97.3776 149.2086 0003608 130.0125 230.1437 15.37148149 83077 TEVEL2-6 1 63215U 25052F 26252.65659895 .00015303 00000+0 42304-3 0 9998 2 63215 97.3777 149.2078 0003524 129.8396 230.3159 15.37117262 83078 TEVEL2-1 1 63217U 25052H 26253.43411845 .00015486 00000+0 43656-3 0 9991 2 63217 97.3753 149.5043 0003413 141.0768 219.0722 15.36505913 83179 TEVEL2-3 1 63218U 25052J 26252.64363640 .00014895 00000+0 41933-3 0 9992 2 63218 97.3756 148.7466 0003087 138.5755 221.5723 15.36555936 83053 TEVEL2-2 1 63219U 25052K 26252.65227583 .00014410 00000+0 40661-3 0 9999 2 63219 97.3754 148.7242 0003303 142.4053 217.7422 15.36492914 83059 OTP-2 1 63235U 25052AB 26253.42414865 .00006540 00000+0 26494-3 0 9997 2 63235 97.3739 144.5866 0004982 206.7928 153.3053 15.24988855 82858 TEVEL2-9 1 63237U 25052AD 26253.26637454 .00014094 00000+0 42622-3 0 9996 2 63237 97.3811 148.5172 0005642 177.0387 183.0890 15.34306248 83062 TEVEL2-7 1 63238U 25052AE 26253.26015976 .00013298 00000+0 40695-3 0 9999 2 63238 97.3813 148.3878 0005535 178.8508 181.2749 15.33944486 83054 TEVEL2-8 1 63239U 25052AF 26252.68202349 .00013040 00000+0 39943-3 0 9996 2 63239 97.3818 147.7833 0005509 180.5846 179.5392 15.33918795 82967 INNOSAT 16 (RS92S7) 1 64878U 25155C 26253.64719454 .00004283 00000+0 16796-3 0 9997 2 64878 97.4665 220.6003 0008538 239.1795 120.8604 15.26271716 93703 GEOSCAN 6 (RS92S6) 1 64879U 25155D 26253.67601230 .00008033 00000+0 26535-3 0 9992 2 64879 97.4651 222.6981 0005870 221.2008 138.8791 15.31642781 93842 GEOSCAN 1 (RS92S1) 1 64880U 25155E 26253.64135751 .00008395 00000+0 27099-3 0 9998 2 64880 97.4646 222.8937 0005764 220.8424 139.2386 15.32370335 93850 239ALFEROV (RS61S) 1 64881U 25155F 26253.66968037 .00011838 00000+0 34962-3 0 9995 2 64881 97.4641 223.8037 0005242 215.6715 144.4179 15.35103112 93919 GEOSCAN 2 (RS92S2) 1 64890U 25155Q 26253.68610568 .00008579 00000+0 27475-3 0 9999 2 64890 97.4646 223.1236 0005586 202.6437 157.4559 15.32616435 93871 GEOSCAN 5 (RS92S5) 1 64891U 25155R 26253.64193718 .00011228 00000+0 32878-3 0 9997 2 64891 97.4635 223.9442 0004129 219.0455 141.0491 15.35393536 93928 GEOSCAN 4 (RS92S4) 1 64892U 25155S 26253.68153413 .00012036 00000+0 35003-3 0 9991 2 64892 97.4641 224.0613 0003998 218.0240 142.0722 15.35589567 93932 GEOSCAN 3 (RS92S3) 1 64893U 25155T 26253.68678339 .00015779 00000+0 42202-3 0 9997 2 64893 97.4625 224.7771 0003850 213.1806 146.9198 15.38138564 93983 INNOSAT 3 (RS92S0) 1 64894U 25155U 26253.69849282 .00039437 00000+0 69773-3 0 9995 2 64894 97.4560 227.6780 0003145 176.2693 183.8582 15.50207199 94189 KNACKSAT-2 1 67683U 98067XZ 26253.46411133 .00064385 00000+0 56312-3 0 9996 2 67683 51.6239 222.9813 0007830 143.3958 216.7574 15.68261866 33621 MARINA 1 69920U 26156BD 26253.46086156 .00001680 00000+0 17060-3 0 9991 2 69920 97.7449 152.8453 0006200 307.0994 52.9658 14.92148036 9716